Theta_e
370 368 364 359 359 354 350 343 318 322 314 308 308 310 311 323 323 322 323 326 322 329 333 329 327 328 327 328 330 331 332 327 331 312 310 333 348 350 351 353 354 353 349 352 355 358 359 358 360 362 361 362 363 363 362 361 363 363 363 364 363 365 365 365 364 365 364 363 363 363 363 363 363 363 364 365 366 366 368 367 368 367 367 366 366 366 367 366 366 365 365 365 365 365 366 364 363
367 365 361 359 357 355 338 342 319 309 309 306 309 312 316 321 321 319 319 322 325 329 334 336 336 336 335 333 331 329 329 334 335 334 339 346 347 347 353 353 353 351 351 350 354 354 358 359 359 361 362 362 363 362 362 360 361 362 363 365 365 366 365 365 364 365 364 363 363 364 364 363 363 364 364 364 365 366 366 366 366 366 366 366 366 365 365 365 365 365 365 364 363 365 367 365 364
362 361 358 359 354 349 343 333 307 304 303 302 307 311 319 317 319 323 326 328 331 332 333 332 333 333 332 330 325 325 321 338 338 340 339 346 340 342 351 356 356 353 352 352 355 355 356 356 359 361 362 360 362 361 361 363 363 363 364 365 366 365 364 364 364 364 364 363 363 364 363 363 364 364 364 365 365 366 367 366 366 365 365 366 366 366 365 365 364 363 362 363 362 363 363 366 365
364 363 351 354 343 349 328 324 313 304 303 303 306 317 318 319 321 326 329 331 332 332 331 330 327 333 329 324 327 332 330 331 339 339 337 341 343 347 349 354 356 355 355 355 357 356 356 355 356 358 360 358 360 361 359 360 363 366 366 366 365 364 364 365 365 364 365 364 364 364 364 364 365 365 365 365 366 366 366 365 365 365 366 366 366 365 364 363 362 362 362 363 363 362 362 365 365
359 360 358 351 340 331 326 321 313 305 305 304 305 317 320 321 322 324 326 329 330 331 329 329 328 333 333 330 334 325 328 337 339 343 341 346 350 350 351 354 355 355 354 357 357 356 354 355 357 358 359 359 358 360 363 364 365 366 366 366 365 365 366 366 365 365 364 364 363 363 363 364 364 364 364 364 364 364 364 364 365 365 365 365 364 364 364 363 362 362 361 361 361 359 361 363 365
353 352 353 348 334 339 327 306 306 305 309 307 310 315 322 323 321 323 324 327 329 330 330 329 326 329 327 331 336 330 336 328 340 343 345 345 350 351 352 356 356 357 356 356 358 359 358 361 363 365 365 365 364 363 363 364 366 367 367 367 367 366 365 366 366 365 364 364 364 364 364 363 363 364 364 364 364 365 365 364 365 364 364 364 363 364 363 363 361 360 360 360 358 358 360 361 362
344 342 342 342 338 336 316 304 303 305 309 317 317 318 321 323 325 325 323 324 328 330 333 329 330 329 326 333 337 340 346 344 341 344 348 351 353 355 357 357 356 356 356 357 360 360 361 361 363 364 365 363 362 363 362 363 366 367 367 367 367 366 366 365 365 365 365 365 364 365 364 364 364 365 365 365 366 365 365 365 365 364 364 363 362 362 363 362 361 360 361 359 360 360 358 360 362
351 337 336 326 318 319 309 305 305 307 311 321 322 321 324 325 326 324 321 321 320 323 328 332 335 331 329 340 328 341 346 348 348 350 352 354 356 357 358 358 355 355 358 360 360 360 363 362 363 364 364 362 362 361 363 364 365 365 365 365 366 365 365 365 365 365 366 365 365 365 365 365 365 366 366 366 366 366 366 366 365 364 364 363 362 361 361 361 361 361 360 360 362 363 363 362 361
344 338 334 322 310 310 304 305 307 312 317 321 321 327 329 325 326 325 324 326 326 329 331 332 332 325 329 333 333 341 345 350 351 353 354 356 356 358 358 356 354 355 358 360 361 359 360 364 364 364 364 362 362 361 362 363 365 365 365 365 365 364 366 366 365 365 364 364 364 365 365 365 366 366 366 366 365 365 365 365 364 363 362 362 362 362 361 360 360 360 361 360 361 363 364 363 362
338 336 322 318 310 306 305 305 304 310 316 321 322 322 324 327 326 327 326 325 327 330 331 335 334 329 334 330 334 340 344 350 351 351 354 357 358 358 357 356 357 356 357 358 359 360 362 366 365 365 364 364 364 363 363 363 364 364 364 364 365 366 366 366 365 365 365 364 364 364 365 365 365 365 365 365 365 364 364 364 363 363 362 362 361 361 361 361 362 362 362 361 361 361 362 364 363
328 336 327 315 307 303 302 303 306 310 312 316 320 325 326 328 328 327 328 328 332 330 332 335 331 331 333 333 337 348 350 350 347 347 353 357 358 357 357 359 358 359 356 358 359 361 363 362 366 365 364 363 363 363 363 365 365 364 364 365 365 365 365 365 366 365 365 365 365 365 365 365 365 364 364 364 363 363 363 363 363 362 362 361 361 362 362 363 362 362 361 363 363 363 363 362 362
317 321 321 307 305 303 305 306 309 311 315 319 319 325 329 329 329 326 327 326 329 330 330 334 329 336 331 332 334 345 349 349 348 350 354 357 357 357 358 359 360 360 360 359 361 360 361 363 363 365 365 364 364 364 364 364 365 364 364 364 365 365 365 365 366 366 366 366 365 365 365 364 364 364 363 363 363 363 362 362 361 360 360 359 359 360 361 360 361 362 362 362 363 364 364 364 365
324 317 310 306 307 307 309 309 309 315 315 318 320 326 331 328 326 327 327 328 329 327 328 335 337 336 327 330 340 346 345 349 352 353 355 356 356 359 359 359 359 360 361 361 360 360 361 361 363 364 365 366 366 364 364 364 364 364 364 365 366 366 366 365 366 366 365 365 365 366 365 365 365 364 364 363 363 362 361 361 361 361 361 361 360 359 360 359 361 363 364 365 366 365 365 366 367
322 317 312 310 312 310 307 308 310 309 310 319 325 329 329 326 327 329 329 325 327 326 334 339 337 337 332 335 337 340 344 351 352 355 355 356 358 359 357 357 357 358 360 360 359 363 362 362 363 362 363 363 363 365 366 365 365 365 365 365 366 367 367 367 367 367 366 366 365 365 366 365 365 364 363 363 362 362 362 361 361 361 362 362 362 362 362 362 363 363 364 364 365 365 366 367 367
325 322 315 310 307 306 310 308 308 309 309 320 325 326 327 329 329 329 328 325 327 336 339 341 339 333 325 330 331 338 344 350 353 355 356 357 357 358 357 356 356 357 359 359 359 361 361 362 362 362 363 361 362 361 361 364 365 365 366 366 366 366 367 367 367 366 366 366 367 366 366 366 364 362 363 363 362 361 361 360 360 360 361 362 362 362 363 363 364 364 365 364 364 366 365 365 366
327 318 312 310 307 307 309 309 309 310 310 319 323 327 326 328 330 328 330 332 331 337 337 331 340 328 333 333 336 343 348 351 354 355 354 352 354 355 355 355 355 356 357 359 358 360 361 361 362 362 361 360 360 361 360 361 365 367 367 367 367 366 367 367 367 367 367 367 366 366 366 364 363 360 362 359 361 361 360 361 360 361 362 363 363 363 364 364 365 365 366 366 366 365 366 366 365
326 315 310 306 307 308 310 309 310 305 312 316 322 325 323 324 331 331 335 335 329 330 332 335 334 339 336 337 343 348 350 353 355 354 352 351 351 350 352 352 354 355 357 358 357 360 361 361 361 362 361 362 360 360 361 361 364 366 366 368 367 366 366 366 366 366 366 365 365 365 363 359 355 355 355 355 360 358 361 360 361 362 364 364 364 365 365 364 364 366 367 363 364 366 366 366 366
321 316 306 306 307 308 313 312 312 316 315 318 322 325 325 322 326 330 334 330 330 330 330 334 338 339 342 344 348 350 351 351 352 349 347 348 349 348 348 350 352 350 353 354 358 360 359 361 361 361 361 362 362 360 363 363 363 364 361 361 362 363 363 364 362 360 363 359 365 362 360 360 352 349 350 361 356 357 358 361 361 361 362 363 363 364 364 364 365 365 366 366 365 364 366 361 357
314 309 308 307 307 312 316 317 317 318 317 321 323 326 326 323 328 330 326 326 327 325 328 333 334 338 343 346 348 348 349 349 347 348 346 346 346 345 346 350 350 350 349 353 354 359 358 360 360 360 360 362 363 361 363 363 358 358 359 360 361 365 365 364 359 362 358 358 359 359 361 356 352 352 353 358 357 360 356 359 361 362 364 364 362 362 363 364 365 365 366 366 367 366 359 350 349
316 313 308 308 313 314 317 320 319 321 321 321 322 324 324 327 329 332 326 325 325 323 325 330 332 334 339 344 346 347 347 347 348 347 346 346 346 346 347 348 349 350 350 352 353 360 359 358 358 358 360 362 363 362 362 354 357 356 356 360 359 360 360 361 358 358 357 357 359 358 357 356 353 350 362 362 362 358 356 362 362 364 362 361 361 360 361 361 362 360 359 363 362 355 348 347 347
317 314 310 314 314 314 317 321 322 322 323 321 321 322 324 328 329 330 326 322 322 324 331 331 331 335 339 343 345 346 345 346 347 346 347 346 347 349 349 349 350 352 355 355 356 357 359 357 357 357 359 362 363 364 363 359 358 356 358 361 360 360 359 358 358 357 356 355 355 356 354 354 351 352 352 353 350 348 346 347 350 345 345 339 355 341 343 343 347 342 344 350 346 349 348 345 344
316 316 317 318 315 315 319 321 323 322 323 321 320 321 323 329 329 327 325 320 318 324 332 334 336 338 340 342 344 345 344 345 345 345 346 346 346 348 350 351 353 353 354 353 355 357 359 358 356 357 360 362 363 363 363 362 363 356 359 361 360 360 360 358 357 356 355 356 355 356 357 350 349 349 348 347 348 345 344 344 344 343 340 341 348 340 340 341 340 340 342 344 342 343 346 344 344
309 313 315 318 318 317 319 323 322 322 321 321 320 323 326 324 324 327 326 323 325 331 335 337 338 340 342 344 344 343 343 343 344 345 346 346 347 349 350 351 349 349 352 353 356 358 361 358 357 358 360 363 364 364 364 363 363 361 363 362 358 358 358 358 357 355 356 356 356 358 353 348 347 347 346 346 346 345 343 342 342 342 340 339 344 340 340 341 340 341 340 341 341 342 343 344 344
314 310 313 316 319 319 321 324 323 323 322 321 323 325 323 324 321 327 324 329 329 334 337 338 340 341 342 341 342 342 343 343 344 345 347 347 348 349 350 350 349 350 353 354 357 359 361 359 358 359 360 362 363 365 364 362 362 361 364 365 362 362 361 359 359 357 357 356 357 356 358 349 347 346 347 345 345 343 343 341 341 341 342 342 344 341 339 339 340 340 340 341 341 341 342 343 344
309 310 315 317 320 320 323 324 324 324 323 325 326 323 323 325 324 327 326 330 333 335 338 339 340 340 341 340 341 341 342 344 344 345 347 348 349 351 351 352 349 350 351 354 357 358 360 361 360 360 360 360 361 362 361 362 362 363 364 363 361 365 360 360 360 360 358 357 357 356 358 348 346 346 345 346 343 343 341 341 340 340 343 341 343 341 340 338 339 339 341 341 341 342 340 341 342
312 314 318 319 319 322 323 323 324 325 326 327 325 324 326 327 331 327 329 331 334 338 339 339 339 339 339 340 341 341 341 342 344 344 345 347 350 349 349 351 350 349 352 354 356 358 360 361 361 361 360 360 360 360 360 362 362 360 363 364 362 365 362 361 361 361 361 358 356 355 355 350 347 346 346 344 343 342 341 339 341 341 341 341 342 340 342 340 339 340 341 342 342 342 342 341 344
316 318 319 318 320 322 324 323 324 326 327 328 326 325 326 330 328 321 331 332 336 338 338 339 338 338 339 340 340 341 341 342 343 345 345 345 347 349 348 351 350 350 353 353 355 357 360 360 360 361 360 363 359 358 359 361 362 360 361 364 363 363 362 361 360 355 356 361 358 356 354 353 348 347 345 344 343 341 340 339 340 342 340 341 343 342 344 344 342 342 342 341 341 341 341 341 341
319 318 319 319 321 323 324 324 324 327 326 329 328 325 327 330 328 324 329 333 337 336 337 337 338 338 339 340 339 340 341 342 343 344 342 342 345 347 347 349 350 351 352 352 354 357 359 359 359 360 360 361 359 358 360 360 359 360 360 361 362 362 363 357 353 353 356 355 358 356 354 351 354 346 345 344 343 341 341 341 342 343 343 342 344 342 342 344 343 342 342 341 341 341 341 341 342
318 320 316 317 320 320 323 322 324 327 324 329 330 325 323 325 322 328 332 335 335 335 335 336 336 338 339 339 340 340 340 341 342 342 342 343 346 349 347 351 351 351 353 354 355 357 357 359 357 357 359 360 359 357 357 359 359 358 359 359 362 362 358 355 352 351 352 352 354 357 355 351 352 348 346 345 348 342 342 343 344 346 344 344 344 344 345 342 341 339 339 341 338 339 338 338 341
321 320 317 316 316 316 321 325 325 325 326 330 328 311 314 321 326 330 333 333 334 333 332 333 334 336 338 338 339 339 341 341 340 341 342 343 346 348 347 351 354 353 352 354 355 356 358 360 360 358 358 357 358 357 356 357 358 356 357 360 364 358 352 358 358 356 354 352 353 356 355 352 352 349 346 345 345 344 343 344 345 345 344 342 342 343 338 338 337 337 339 336 341 337 333 333 333
314 316 319 313 311 310 320 323 324 323 327 328 325 312 311 321 327 331 333 333 332 330 331 331 332 334 335 336 337 338 339 340 340 341 342 344 346 348 348 349 352 352 353 353 354 355 358 358 360 358 360 356 359 356 357 356 358 357 358 361 360 356 355 354 349 353 354 354 355 356 355 352 352 349 348 346 344 344 343 344 344 344 344 343 340 339 337 336 335 335 338 333 331 332 331 335 334
313 311 304 310 311 310 318 319 323 320 324 325 322 311 315 322 327 331 332 332 331 329 330 330 330 331 333 333 334 335 336 338 338 340 341 343 346 346 347 347 350 351 352 353 355 356 357 357 361 357 360 357 358 358 358 358 359 358 361 366 358 355 353 351 351 354 356 358 359 356 355 353 353 349 348 346 344 343 343 343 343 342 342 340 338 337 336 334 333 334 334 334 330 331 332 331 330
309 309 303 307 308 311 313 316 322 325 325 323 319 312 318 320 328 330 332 331 330 328 328 328 329 330 332 332 332 333 335 335 336 338 340 343 345 346 347 347 349 351 352 354 355 355 356 356 361 355 357 357 357 359 358 357 356 355 355 362 358 354 353 352 351 353 354 357 358 357 356 355 354 350 349 347 346 343 343 343 341 340 342 338 336 335 334 335 332 334 332 335 331 329 330 331 331
305 304 306 307 308 309 307 315 319 320 323 317 321 318 320 323 327 329 331 330 328 326 326 327 328 329 330 331 331 331 333 334 333 336 339 343 344 345 347 351 350 351 353 355 356 355 355 355 357 355 355 358 357 358 356 354 356 354 354 358 361 356 353 352 350 349 349 352 353 352 348 348 347 345 345 345 345 345 342 341 339 339 339 337 335 334 332 333 333 332 332 332 334 332 331 330 331
302 301 302 302 308 311 309 310 315 319 321 317 317 319 320 322 327 328 329 330 328 326 326 327 328 329 329 330 330 330 332 333 334 336 340 343 344 345 347 349 349 351 353 355 355 355 355 354 356 357 357 357 357 357 356 355 355 352 350 352 352 352 354 354 353 351 351 349 349 349 345 344 345 345 345 345 343 344 342 340 339 339 339 336 335 334 334 335 337 335 335 335 335 334 333 332 332
304 304 305 306 304 307 309 314 317 320 316 314 316 315 317 322 325 327 329 330 327 326 327 327 329 329 329 329 330 330 331 333 336 337 341 344 345 346 346 349 349 350 352 354 354 354 353 353 355 356 357 357 356 356 355 353 352 351 349 345 346 350 348 351 350 348 351 347 349 348 345 345 347 346 345 344 344 345 341 340 339 339 338 337 336 337 338 337 337 337 336 336 334 334 337 336 335
306 308 305 306 307 308 311 314 318 321 316 314 316 317 318 322 324 326 328 329 327 326 326 327 328 329 329 329 329 330 332 333 336 338 341 344 345 347 347 349 349 350 351 352 352 352 352 352 354 353 356 356 355 354 353 352 348 345 344 345 345 345 346 347 349 351 353 349 347 346 346 345 346 347 347 345 343 347 343 340 340 338 339 341 340 339 338 339 340 338 338 340 339 337 337 336 337
305 306 304 303 307 306 310 312 317 320 315 311 316 315 317 322 324 326 328 327 325 326 326 326 328 329 329 329 329 331 333 336 337 338 341 344 345 347 347 347 350 347 349 351 351 352 352 353 354 354 356 356 355 355 354 352 349 349 347 346 344 343 346 347 345 350 351 351 349 346 347 345 345 345 348 346 345 346 345 344 343 343 343 343 343 343 342 344 342 339 341 339 340 339 339 338 337
303 301 302 302 302 306 309 314 317 319 315 310 314 314 315 320 324 326 326 326 327 328 328 328 329 329 330 330 330 331 334 335 336 338 341 343 345 347 347 347 348 349 348 350 351 352 352 352 355 356 356 355 356 356 355 352 350 351 349 346 347 343 347 349 348 352 354 350 351 349 348 346 346 345 347 348 346 346 347 346 345 346 346 347 346 345 345 344 343 341 341 340 339 341 341 343 341
301 299 301 299 303 304 301 307 315 317 314 310 313 314 315 319 322 324 326 327 327 328 329 329 331 330 330 331 331 332 334 335 335 337 339 342 344 346 346 346 347 348 348 349 350 350 352 352 354 357 357 357 356 357 358 355 353 350 349 349 349 348 347 354 351 352 353 354 351 350 348 347 346 345 347 347 348 346 348 348 349 349 349 349 348 346 345 345 344 341 341 341 341 338 338 334 338
301 302 300 300 304 305 305 306 312 314 315 317 314 310 311 314 316 318 323 326 326 326 328 329 331 332 333 333 333 334 334 335 336 337 340 341 342 344 345 347 348 347 347 348 349 350 352 352 354 357 359 358 358 360 360 356 354 349 352 352 353 350 349 346 344 342 348 354 352 349 347 346 346 345 346 347 348 347 348 350 349 349 348 347 347 345 343 343 343 342 341 341 341 339 336 331 331
300 301 303 302 305 308 309 310 310 307 307 314 314 299 302 309 315 317 320 321 322 324 323 325 328 330 331 331 332 334 336 338 338 338 340 341 342 344 346 347 347 347 347 348 350 351 352 353 354 356 359 360 359 359 360 355 355 348 347 346 343 340 341 340 337 336 337 346 349 352 349 349 348 346 346 348 350 350 347 346 344 342 341 343 344 342 339 335 335 336 337 337 337 337 332 329 328
299 299 303 304 304 306 308 309 309 300 301 310 316 305 295 304 311 315 318 318 319 321 321 323 326 328 330 330 332 333 335 337 339 340 342 342 342 344 346 347 347 346 347 349 351 352 353 353 354 356 357 358 359 359 359 356 351 349 348 347 345 344 342 340 336 334 341 339 340 343 347 346 346 344 343 345 346 345 341 339 339 338 339 338 344 338 336 337 336 336 337 334 335 337 332 327 327
297 300 304 304 302 303 308 309 309 306 310 312 313 306 301 299 310 315 317 317 317 318 320 322 324 326 329 330 332 333 335 337 339 340 342 343 343 345 345 347 348 348 349 350 351 353 354 354 354 355 357 358 357 357 356 355 351 348 346 345 345 342 342 340 334 333 334 338 336 338 339 339 339 340 341 339 340 344 342 339 338 337 337 340 344 337 336 335 336 336 340 335 335 335 331 329 332
299 303 304 303 304 303 308 309 307 305 307 301 309 310 302 300 305 314 315 313 314 316 318 320 323 325 328 330 332 334 335 338 340 340 342 343 343 345 347 348 349 350 350 350 351 352 355 356 356 355 355 355 354 355 355 353 353 349 347 344 343 341 340 336 338 340 337 337 334 334 335 336 337 337 339 340 340 343 344 339 337 336 336 339 341 336 336 337 335 335 335 334 332 333 332 334 334
305 306 305 304 305 303 309 306 305 305 303 298 305 308 301 294 302 309 311 313 313 315 318 320 323 325 327 329 331 334 336 338 341 342 344 345 345 347 349 350 350 351 352 352 352 353 353 354 354 354 353 353 352 353 355 353 351 349 342 339 339 332 336 335 336 335 333 332 331 331 334 334 335 336 336 337 338 341 340 340 337 337 336 339 342 334 334 333 334 333 333 333 331 333 335 336 333
307 304 302 301 302 302 305 302 302 302 296 299 307 309 306 296 302 309 308 311 316 318 318 320 322 325 328 330 331 333 335 338 340 341 343 345 347 348 349 349 350 351 352 352 352 352 353 353 353 353 353 352 352 352 353 351 347 344 339 334 333 332 333 334 332 331 330 329 329 332 333 335 334 334 336 335 337 338 338 340 337 337 337 344 342 333 333 334 335 334 334 333 334 332 331 332 335
306 303 301 299 298 297 295 295 301 297 291 298 307 308 308 297 297 306 315 319 320 319 318 319 321 323 327 329 331 333 335 337 340 341 342 344 346 348 349 348 349 350 351 352 352 352 353 352 352 352 351 351 349 350 350 348 344 340 335 332 332 333 333 333 331 331 330 329 328 334 332 332 330 332 332 335 336 337 339 336 339 338 339 334 333 332 333 334 334 333 332 331 330 330 330 334 330
302 299 299 295 286 291 291 294 292 292 295 299 304 309 303 302 301 310 315 317 319 320 321 321 322 323 326 329 331 334 335 337 339 341 342 343 344 346 347 347 348 348 349 351 352 352 352 352 352 351 350 350 348 346 346 343 339 336 332 330 331 332 330 331 331 330 330 328 329 332 329 329 330 331 331 336 336 337 337 334 332 332 333 335 335 332 333 333 333 332 331 330 330 329 333 333 332
299 299 294 292 288 288 283 285 287 288 294 298 302 309 302 300 306 310 314 318 321 321 322 323 323 324 325 328 331 334 335 337 339 341 342 343 344 346 347 348 348 348 349 351 351 352 352 352 351 351 350 349 346 342 342 339 336 335 332 330 331 333 329 328 329 331 332 331 333 332 330 330 331 331 333 335 337 336 337 334 337 331 330 330 335 332 331 331 332 332 331 331 331 332 331 331 330
300 299 300 295 292 288 285 286 289 292 296 298 303 303 297 301 305 313 315 319 321 322 323 323 324 325 327 329 331 334 335 337 339 340 342 344 345 346 347 348 348 349 349 350 351 352 351 351 351 351 350 348 344 341 339 338 335 333 333 332 332 333 330 329 328 332 334 332 332 333 331 330 328 330 335 335 337 335 334 333 333 332 333 331 333 335 338 335 333 334 334 333 335 331 332 332 329
298 300 301 295 296 295 292 290 291 291 291 292 298 298 300 307 307 312 317 316 316 322 322 322 322 324 325 326 329 331 335 337 339 340 342 344 346 346 347 347 348 349 349 350 350 351 351 351 351 351 350 347 344 341 338 337 335 334 333 332 332 334 336 331 332 337 334 333 332 331 330 329 329 332 334 335 335 334 332 333 335 334 332 332 332 332 331 331 331 331 331 331 333 337 332 331 332
298 300 296 299 302 301 296 299 299 295 292 290 295 298 298 302 305 308 316 316 314 319 321 322 321 323 324 326 328 330 333 336 338 340 341 344 346 347 347 347 348 349 349 350 350 351 351 351 350 350 350 347 343 341 338 337 336 334 333 332 331 332 332 329 330 333 333 333 332 331 330 330 330 333 333 335 333 332 331 333 335 336 333 332 331 332 333 332 332 331 332 331 332 332 334 334 332
298 295 298 301 305 301 297 290 292 290 287 289 294 295 294 297 294 307 315 314 316 317 319 321 321 322 323 325 327 329 331 335 338 340 342 344 346 347 347 348 349 349 350 350 351 352 352 352 351 350 350 346 343 341 338 336 335 334 332 330 330 332 331 330 332 333 333 332 331 329 330 331 329 332 333 335 334 332 332 342 333 333 332 331 332 332 332 332 331 331 331 331 333 332 332 333 333
306 303 303 301 294 295 294 293 289 287 288 287 291 294 295 296 297 304 308 313 314 316 318 319 319 321 322 324 326 328 330 334 336 338 340 343 345 346 347 348 349 350 351 351 352 352 352 352 351 351 349 348 344 342 340 338 336 336 334 331 330 331 331 331 332 332 331 331 331 328 329 330 330 330 335 333 332 331 330 331 333 332 331 333 332 332 332 331 330 330 331 331 331 329 329 330 332
305 303 301 304 300 294 294 295 293 293 287 288 288 291 295 300 298 305 306 313 315 316 317 318 320 321 323 324 326 326 328 332 335 337 339 342 345 347 347 348 348 349 350 351 351 352 351 351 351 350 350 348 344 342 340 337 336 336 334 331 331 332 332 332 332 331 329 329 330 329 329 328 329 333 332 332 332 332 331 330 331 332 332 330 329 330 330 330 329 330 330 330 330 329 330 330 330
298 300 297 300 304 299 298 299 294 293 286 285 285 289 291 296 303 307 308 313 317 318 318 319 320 321 323 324 325 326 327 331 335 337 338 340 344 346 348 349 349 350 351 351 351 351 351 351 350 349 347 346 343 342 340 338 337 335 334 331 331 331 331 332 332 331 330 330 330 332 330 330 331 331 332 331 331 331 331 332 331 332 330 329 329 329 330 329 328 329 329 329 327 327 329 330 331
300 300 297 298 295 296 293 292 296 296 292 285 286 289 290 299 311 311 310 316 319 320 320 320 320 322 322 324 325 326 327 330 334 337 338 340 342 345 348 349 349 349 349 350 350 350 350 350 350 349 348 345 343 341 340 339 337 335 334 332 331 331 331 331 331 331 331 330 330 331 330 330 330 330 332 333 332 332 333 332 330 329 329 329 329 329 330 328 329 328 327 330 330 328 328 330 329
Wind_Speed
3 4 3 1 2 3 2 2 0 2 3 4 3 3 3 3 4 6 6 3 4 2 4 9 10 5 1 5 10 9 11 3 2 4 3 2 3 8 6 7 8 9 7 3 3 6 8 12 17 20 21 20 20 20 19 17 15 19 18 20 21 21 20 20 20 19 19 18 17 17 16 16 16 15 14 14 13 13 12 11 11 11 10 10 9 8 8 7 7 7 7 6 5 6 8 8 9
4 2 1 1 0 3 1 0 4 3 4 6 3 2 5 5 4 4 5 4 2 3 5 9 10 15 16 12 7 6 11 9 6 7 6 6 7 4 5 8 9 10 8 5 5 6 6 10 15 19 20 20 20 18 18 16 16 19 19 19 19 20 20 19 19 19 18 18 17 17 16 16 15 15 14 13 13 12 12 11 11 11 10 10 9 8 7 6 6 6 6 5 4 5 8 8 8
4 3 2 1 1 1 1 1 3 1 5 7 5 4 4 7 7 5 7 10 11 10 12 12 11 8 7 1 8 6 2 6 10 10 7 8 9 1 6 8 9 10 10 6 5 6 5 8 13 16 19 18 17 18 14 16 18 19 19 19 19 20 20 19 19 18 18 17 17 16 16 15 15 15 14 14 13 13 12 12 11 11 10 10 8 8 7 6 5 5 5 4 4 4 5 8 8
4 0 3 1 1 1 0 3 3 5 5 2 5 7 8 7 8 8 7 10 10 10 6 4 5 4 6 13 7 9 7 4 6 8 6 5 3 8 6 6 10 8 8 6 6 7 7 10 16 15 20 20 20 21 20 19 19 17 18 19 20 20 19 19 18 18 17 17 17 16 15 15 15 14 14 14 13 13 13 12 11 11 10 10 9 8 8 6 5 4 4 4 3 3 4 6 7
2 2 3 4 1 2 2 1 4 1 6 2 7 7 10 9 10 9 6 5 5 5 6 6 6 6 9 8 1 1 2 7 7 5 5 5 10 9 8 9 9 8 8 7 7 7 10 16 21 19 21 21 21 23 23 22 18 19 17 18 18 18 18 17 17 17 17 16 16 16 16 15 15 14 14 13 13 13 12 12 12 11 11 10 9 9 7 6 4 3 3 2 3 3 2 4 6
4 3 3 3 0 1 1 3 3 3 3 4 7 7 11 9 11 10 10 8 6 6 4 6 5 4 4 4 3 4 5 4 6 6 6 6 12 12 10 10 9 8 7 5 4 5 9 15 13 17 17 18 18 18 15 15 20 20 18 17 16 16 17 16 16 16 17 16 16 16 15 15 14 14 14 14 13 13 13 12 12 11 10 10 9 8 7 6 4 3 2 2 2 3 3 2 3
3 4 1 1 1 1 4 5 5 3 2 6 8 10 11 10 11 13 12 11 9 11 6 11 15 13 9 2 6 3 3 7 5 7 6 11 12 12 12 10 9 9 8 6 4 5 9 15 14 16 18 17 17 15 14 13 13 17 17 17 17 17 17 17 17 17 17 16 16 16 15 15 14 14 14 14 14 13 13 13 12 11 10 8 7 6 5 5 4 3 2 3 2 2 2 2 2
1 2 1 2 1 2 3 2 4 3 2 7 11 14 13 13 12 10 7 10 4 6 5 4 3 12 7 4 5 5 6 4 10 11 13 11 12 12 12 10 9 10 9 6 5 6 11 15 16 17 17 16 14 12 12 13 13 16 17 17 17 17 17 17 17 17 16 16 15 15 15 15 15 15 14 14 14 14 13 12 11 9 8 7 5 5 4 3 3 3 3 3 4 4 4 3 3
2 3 0 1 2 2 3 3 4 1 7 8 7 11 12 10 9 10 9 7 10 7 10 10 1 8 3 9 6 6 7 10 11 13 11 12 13 13 8 9 10 9 9 7 6 7 7 13 15 17 18 17 17 15 13 12 14 17 17 17 17 17 17 16 16 16 15 15 15 15 15 15 14 14 13 13 12 11 11 9 8 7 6 5 4 3 2 2 3 3 3 4 4 5 5 4 5
2 0 1 1 2 5 4 3 6 3 7 8 14 11 10 9 9 13 12 8 8 10 4 6 4 13 11 11 7 4 5 11 12 11 10 10 11 11 11 9 9 10 9 8 7 7 6 14 16 16 17 18 19 18 18 18 18 18 17 17 17 16 16 15 15 15 15 14 14 14 14 13 13 12 11 10 10 9 8 7 6 5 5 3 2 2 2 2 3 3 4 4 4 6 7 7 7
1 0 1 1 3 3 5 4 5 4 8 6 6 8 11 11 11 10 10 10 5 7 9 13 10 14 9 5 4 5 10 12 13 11 11 11 10 12 11 10 10 10 9 8 7 5 7 7 16 15 16 16 17 19 19 18 17 17 16 16 16 16 16 15 15 15 14 14 14 13 12 12 11 10 9 8 8 7 6 5 5 4 3 2 1 2 2 3 4 5 6 6 6 7 8 8 8
1 2 1 1 1 4 3 7 7 6 8 9 6 9 5 14 13 10 12 12 8 10 10 3 5 10 10 5 3 8 10 10 10 11 11 10 9 11 10 8 9 8 9 8 6 4 4 6 7 12 15 16 16 16 16 17 17 17 17 17 17 16 16 16 15 15 14 14 13 12 11 10 9 9 8 8 7 6 5 5 4 3 3 2 3 3 4 5 6 7 7 8 8 8 9 9 9
1 2 4 5 2 2 3 8 6 9 7 7 11 5 10 12 12 12 9 12 11 13 6 4 13 3 6 5 4 10 11 10 10 11 11 9 9 9 8 7 7 8 8 8 7 5 4 3 5 5 8 14 14 15 15 16 16 17 17 17 17 16 16 16 15 15 14 14 13 12 11 10 9 8 8 7 6 6 5 4 4 4 4 3 4 5 5 6 7 8 9 9 10 9 9 9 10
4 5 5 2 0 3 4 5 4 8 3 5 6 11 7 9 9 13 13 13 11 5 6 14 6 8 10 8 6 8 9 11 12 12 11 10 9 9 9 7 7 6 7 7 6 6 5 5 4 4 6 6 5 10 14 15 15 16 16 16 16 16 16 15 15 14 13 13 12 12 11 10 9 9 8 7 6 6 4 4 3 4 4 5 5 6 7 7 8 9 10 10 11 11 10 9 10
6 1 4 3 1 1 1 7 7 8 5 7 9 10 6 4 14 13 16 14 2 10 12 3 7 10 8 12 8 9 10 13 13 12 10 10 10 10 9 7 7 6 5 6 5 6 6 5 4 3 3 3 3 3 3 9 15 15 15 16 16 15 15 14 14 13 13 12 12 11 11 11 9 9 8 7 6 5 4 3 3 4 5 6 6 7 8 8 9 10 11 12 12 11 10 10 11
7 3 3 3 1 4 3 5 4 9 6 7 9 9 10 7 9 12 5 7 8 9 13 6 5 1 8 4 10 12 14 14 12 12 11 12 10 8 8 8 7 6 5 6 5 6 5 4 2 3 2 3 3 2 3 3 11 14 14 14 14 14 13 13 13 12 12 11 11 10 10 8 7 5 8 5 6 5 3 1 2 4 6 7 7 8 9 9 10 11 12 13 12 11 11 11 11
0 2 2 2 3 2 4 4 9 7 8 6 9 13 12 9 3 4 6 10 17 12 2 6 6 4 12 5 12 13 14 13 11 13 15 10 8 7 6 5 5 5 5 6 6 6 6 5 5 4 4 3 2 2 2 3 6 12 11 12 12 12 11 12 12 12 10 9 8 8 7 3 2 2 2 1 4 1 3 4 5 6 8 8 7 8 9 9 10 11 12 13 13 12 11 11 11
1 1 4 3 4 3 5 7 5 7 12 11 13 12 16 11 5 6 10 8 11 7 8 6 7 9 7 11 12 14 14 14 14 14 10 9 7 7 6 6 6 7 6 6 5 5 5 5 6 5 4 4 3 2 2 3 2 9 4 3 4 6 7 8 6 3 6 1 8 5 3 2 2 2 2 5 2 3 4 8 8 8 8 8 8 9 9 10 10 11 12 12 12 11 11 5 5
3 2 3 6 4 5 5 5 7 13 12 14 13 14 17 13 15 8 10 9 9 9 8 10 9 10 11 13 15 14 14 13 14 14 13 11 9 11 10 8 8 7 7 5 5 7 6 5 5 6 6 5 4 4 3 2 2 0 1 4 3 4 3 4 2 3 1 2 2 3 3 2 3 3 3 4 3 7 5 8 8 8 8 7 6 8 9 9 9 10 11 11 11 9 4 3 3
3 5 4 6 6 3 4 7 11 13 17 14 13 9 11 13 12 9 11 13 10 12 11 8 12 13 15 14 16 15 13 13 12 13 13 12 11 11 9 9 8 9 9 7 7 6 7 6 6 6 7 6 6 5 4 4 2 2 2 2 4 3 3 3 3 1 2 2 3 2 3 2 2 4 6 9 8 4 4 6 8 7 4 3 5 4 6 6 7 8 9 9 5 3 2 2 3
2 3 5 6 4 4 4 9 9 12 17 15 13 8 12 12 10 10 12 12 7 8 14 19 16 17 16 17 16 15 14 14 12 12 12 12 11 9 10 10 10 10 8 6 6 7 8 7 6 6 6 5 5 5 5 6 5 5 4 3 5 4 3 2 3 3 2 2 2 3 3 2 2 3 3 2 1 2 3 2 2 1 2 2 4 2 2 3 4 5 5 5 4 3 3 2 2
3 7 7 6 4 4 6 8 11 12 13 14 12 14 12 10 8 11 18 15 10 12 12 15 19 19 19 19 17 15 15 15 13 12 13 13 13 10 8 7 5 5 5 6 8 8 9 8 8 7 6 6 7 5 5 5 6 5 5 4 5 4 4 3 3 3 2 3 3 3 3 3 3 2 2 2 2 1 2 2 1 1 1 1 1 0 1 1 2 2 3 3 4 4 3 2 1
5 6 3 6 8 5 5 8 12 13 11 13 13 12 12 12 9 14 16 16 12 12 15 15 20 21 20 18 19 17 17 17 16 14 13 12 11 11 11 8 8 7 6 7 7 6 7 8 9 7 7 7 9 6 4 4 4 3 3 4 5 4 4 4 4 4 4 4 4 4 5 4 4 3 3 3 3 2 3 2 1 0 0 1 0 1 1 1 0 1 2 2 3 3 4 3 2
6 9 6 10 11 9 7 10 13 13 15 14 9 11 14 11 12 8 6 2 10 11 13 14 15 16 17 18 17 18 18 17 17 17 16 14 14 13 12 11 9 6 6 8 8 8 8 10 9 7 7 8 7 6 6 5 4 5 5 6 4 5 6 6 5 5 5 4 4 5 4 5 5 4 3 3 4 2 3 2 1 1 2 1 0 1 1 1 1 1 2 3 2 2 3 4 3
7 7 8 9 11 7 7 11 11 11 10 7 10 13 9 16 11 11 3 8 10 12 13 13 15 16 15 17 17 16 15 15 14 14 12 10 11 10 10 8 9 9 9 9 8 8 9 9 9 9 7 8 6 5 6 5 4 5 5 5 6 7 6 7 6 5 6 5 5 5 4 5 4 4 4 5 2 3 3 3 2 2 2 1 0 0 1 2 2 2 3 3 3 4 3 4 3
6 8 7 9 7 11 8 10 10 12 7 11 12 7 6 7 12 3 4 9 11 14 15 15 15 16 15 16 16 15 14 15 14 14 14 11 11 11 11 10 10 10 12 11 9 9 8 9 9 10 9 8 6 6 5 5 5 6 6 6 7 8 7 6 5 5 5 5 5 6 6 5 6 6 5 4 4 5 4 3 3 3 3 1 1 2 1 1 2 2 3 3 3 3 4 4 3
3 8 9 12 11 12 9 13 10 8 7 13 13 9 9 10 11 1 3 9 13 15 16 14 16 16 15 14 13 13 15 15 15 12 11 9 10 11 12 12 12 13 11 9 8 7 7 7 7 7 8 8 6 7 6 7 6 7 7 5 6 7 5 4 4 2 3 5 6 6 6 6 5 5 5 5 5 5 4 4 5 3 3 1 1 1 1 1 1 3 3 3 3 3 4 4 3
10 10 9 7 10 11 10 11 10 11 3 11 16 9 5 2 1 11 11 10 15 17 16 15 13 13 13 13 13 11 12 12 12 12 15 13 11 11 11 11 12 11 10 10 8 6 7 8 8 7 8 8 8 7 7 7 7 7 7 5 6 6 5 5 4 4 5 4 3 6 6 6 5 5 5 5 5 5 5 5 4 4 4 2 2 2 1 0 1 1 0 1 2 3 4 4 3
12 17 12 7 9 8 9 14 10 10 5 12 14 12 3 1 5 8 13 13 13 16 17 16 13 12 12 12 11 11 11 11 11 11 13 11 9 9 12 11 12 11 8 10 8 8 9 9 8 9 9 8 9 9 8 8 7 6 6 6 6 5 4 4 5 5 5 5 4 5 6 6 5 6 6 6 6 5 5 4 4 4 3 3 2 2 1 0 1 1 1 1 1 1 3 4 3
10 8 12 9 6 6 4 4 5 10 9 16 11 5 5 2 6 11 12 14 13 13 14 13 11 11 11 12 11 11 10 11 11 11 10 10 10 10 11 10 11 10 8 7 8 9 8 7 7 7 8 10 10 9 7 7 7 7 6 6 6 6 2 2 3 4 6 5 5 6 6 6 6 6 6 6 5 5 4 4 4 3 2 2 2 2 1 1 1 0 1 3 4 4 4 4 4
9 3 5 11 9 8 5 4 6 9 8 10 4 8 6 4 9 12 13 15 17 14 14 13 12 11 11 11 11 12 11 11 12 11 10 10 10 9 11 10 10 9 7 7 10 11 9 8 7 7 9 10 9 9 8 8 7 6 6 6 5 4 7 6 4 6 5 6 5 6 6 6 6 7 6 6 5 3 3 4 4 3 3 3 3 2 3 1 0 0 1 2 2 3 2 3 3
4 8 1 1 13 4 6 3 8 14 7 4 9 2 8 10 11 13 14 14 15 15 13 13 11 11 11 10 11 11 11 10 10 11 11 12 11 10 11 11 10 10 10 10 9 9 10 9 8 9 10 10 9 9 8 8 7 7 6 6 5 8 6 6 7 6 6 6 6 6 6 7 6 7 5 2 2 3 3 4 4 1 2 3 3 2 1 0 1 2 2 1 3 4 3 4 2
3 6 6 9 4 10 4 8 10 12 16 5 2 6 4 3 10 14 14 16 15 14 14 13 12 12 12 11 11 11 10 10 9 11 11 11 10 10 10 10 11 11 11 11 11 10 10 9 9 9 10 11 9 7 6 5 5 6 5 5 6 7 7 6 5 3 3 4 4 3 3 3 3 1 3 3 2 1 4 4 1 0 1 2 2 2 1 0 1 2 2 1 1 4 4 4 4
8 1 9 8 13 10 7 7 10 5 13 8 2 9 12 10 16 16 15 17 15 14 15 14 13 12 12 11 11 11 11 11 12 11 11 11 10 11 10 11 12 11 11 12 12 12 12 10 9 9 9 9 8 7 7 7 6 5 4 4 5 5 6 5 4 4 2 2 2 3 5 3 7 7 6 5 1 5 2 1 1 1 2 2 2 2 2 1 2 2 3 2 3 3 5 5 5
10 4 4 5 6 20 15 12 10 9 9 11 6 7 7 6 15 16 16 16 16 15 15 15 14 13 13 12 11 11 11 12 12 10 11 11 11 11 10 10 11 11 10 12 11 11 10 9 9 9 8 8 7 6 5 4 3 2 2 3 3 3 3 3 5 5 5 4 3 5 5 4 5 6 4 4 5 4 4 2 2 2 2 3 2 2 2 2 3 3 4 4 3 5 5 5 5
12 10 11 11 10 10 14 14 10 18 12 5 10 10 8 12 14 15 15 16 15 15 13 13 14 14 13 13 12 11 11 14 12 10 10 11 11 11 10 9 10 10 9 10 11 10 10 9 8 8 8 8 5 5 4 4 3 4 5 3 3 3 3 5 5 4 4 5 4 4 4 6 5 6 6 6 5 5 2 2 2 2 2 1 1 3 5 4 3 3 5 5 4 4 5 6 5
7 1 5 12 13 13 3 6 9 13 7 8 10 10 12 16 18 18 17 15 14 13 14 13 13 14 14 13 14 14 13 15 11 12 11 12 12 11 10 9 10 9 9 10 10 9 10 10 9 10 8 7 7 6 6 6 4 2 1 3 4 5 5 3 4 3 3 4 4 4 5 6 7 7 7 4 4 3 3 2 3 2 1 2 3 5 4 2 4 4 2 2 4 5 4 4 5
3 4 3 6 9 13 11 10 9 11 9 4 1 7 12 17 16 15 14 14 16 16 16 15 15 15 14 15 15 14 15 8 8 8 9 10 10 10 9 9 9 10 9 10 11 10 9 9 11 10 7 8 9 9 8 6 5 6 5 6 3 4 4 5 3 3 4 4 4 5 5 4 5 5 4 4 4 5 5 6 5 4 3 3 4 4 4 5 5 4 4 6 2 5 5 2 2
2 3 3 2 5 2 2 1 9 11 3 3 4 10 10 12 15 13 16 19 17 17 18 18 17 15 13 13 15 15 11 10 10 12 12 11 12 12 10 10 10 13 12 11 11 9 8 9 9 9 8 9 9 8 7 7 5 4 5 3 5 2 1 2 4 4 5 5 5 5 5 5 5 5 5 5 6 6 6 5 4 4 5 5 5 5 5 6 5 6 6 5 5 3 5 4 5
5 2 3 5 5 5 3 4 9 8 4 5 4 5 0 1 4 10 14 15 12 14 16 15 15 17 16 17 17 15 14 13 14 14 14 13 13 12 11 10 10 9 9 9 9 10 9 9 8 8 9 9 9 8 7 7 7 4 2 4 3 3 3 3 3 4 5 5 5 6 6 6 6 6 7 7 6 5 5 5 5 5 6 6 5 4 5 6 5 5 5 6 6 6 2 2 1
2 4 4 3 3 6 5 5 5 3 4 8 8 4 1 3 8 8 10 10 7 9 10 10 11 14 16 15 14 14 16 15 14 14 13 14 14 14 14 12 10 10 10 11 10 10 8 11 10 10 9 10 8 8 9 6 4 4 4 4 3 4 4 3 3 1 3 5 5 5 7 6 6 6 6 6 5 5 5 5 4 5 4 4 4 4 4 6 6 5 5 4 5 5 4 1 2
2 5 9 7 7 6 6 11 11 5 1 3 13 1 5 5 9 12 10 9 13 8 10 13 13 13 10 9 13 13 13 13 15 16 16 16 15 13 12 12 12 11 11 11 11 11 10 10 9 9 8 8 8 8 9 7 7 7 6 5 4 2 2 3 4 5 5 5 6 6 5 6 6 5 5 5 5 4 5 5 4 3 3 4 5 5 4 3 3 3 4 4 3 4 3 0 2
3 6 8 10 9 7 10 16 12 7 11 10 11 12 4 1 10 11 9 11 13 7 11 15 13 12 12 13 13 13 14 12 12 13 13 14 14 14 13 13 13 13 13 11 10 10 11 10 10 10 10 8 7 7 8 7 7 7 8 8 7 7 6 4 2 3 5 4 3 5 6 4 4 5 4 5 5 3 3 3 3 2 2 3 3 3 2 3 3 3 2 2 4 3 2 1 0
4 4 6 6 6 6 12 16 17 10 1 3 5 2 5 3 12 10 10 10 12 13 13 15 15 14 15 14 14 14 14 14 14 15 16 16 16 16 17 15 14 14 12 10 10 10 11 11 9 10 8 7 6 6 8 8 8 7 6 6 6 6 6 6 4 4 2 3 4 4 4 4 3 3 3 2 3 3 4 3 3 3 3 2 2 3 3 2 1 1 1 1 0 1 2 3 2
6 3 7 5 8 8 10 13 12 6 11 4 10 1 1 4 5 7 10 10 12 17 17 16 17 16 16 16 16 16 16 16 16 15 17 17 18 17 16 15 14 13 11 11 11 11 10 9 9 7 8 6 6 7 8 7 7 8 8 6 5 4 4 5 5 3 4 3 4 2 3 3 3 2 4 4 3 4 4 4 4 4 3 3 2 2 1 0 1 2 1 0 1 1 1 2 1
7 4 3 1 1 3 10 10 10 3 7 6 11 9 7 5 1 6 5 10 14 18 20 20 18 19 17 17 17 17 15 14 14 16 17 18 18 17 16 15 13 13 12 12 11 10 9 8 8 8 8 7 7 7 8 7 7 7 7 6 7 5 4 4 5 6 4 3 4 3 2 3 3 2 2 3 3 4 4 4 4 4 4 3 2 3 3 3 2 1 1 1 1 1 2 3 3
2 4 2 1 3 1 3 4 4 4 5 9 17 17 12 7 7 12 12 14 21 19 14 13 12 14 16 17 18 16 15 15 14 15 15 15 15 15 14 15 15 12 11 11 11 11 9 9 10 10 10 7 7 8 8 8 6 7 7 8 8 8 6 7 6 4 4 3 4 4 4 5 3 5 3 3 4 4 4 3 4 4 3 3 3 3 3 2 2 2 3 2 1 1 3 3 3
6 2 4 0 3 5 3 3 2 6 5 8 9 14 11 10 4 7 15 20 24 21 20 21 21 20 19 17 16 16 16 15 15 14 14 14 11 11 12 14 14 13 11 12 11 11 10 10 10 11 8 8 7 7 8 8 7 7 7 8 9 8 9 8 9 9 7 7 6 7 5 5 3 2 3 4 3 3 3 3 3 3 3 3 3 3 2 2 2 2 2 1 1 2 2 2 2
5 4 3 5 3 1 3 1 3 6 8 8 8 10 1 10 8 13 20 17 18 19 18 21 23 22 20 18 17 15 14 14 14 15 14 13 14 15 15 15 14 13 13 14 13 12 11 10 11 12 11 8 8 8 9 9 8 8 8 8 8 8 9 9 9 9 8 8 7 5 6 6 3 3 3 5 5 5 3 3 3 3 2 3 3 2 2 2 3 3 2 3 3 3 4 4 3
7 7 5 6 3 3 3 2 1 3 6 5 6 12 8 2 8 7 13 21 25 23 21 19 18 21 21 19 16 14 14 15 15 14 14 15 15 15 16 15 15 13 14 15 14 13 12 11 12 12 13 10 8 8 10 10 10 9 9 9 9 9 9 9 8 8 8 7 7 7 7 7 7 6 5 5 7 5 4 4 4 3 3 3 2 3 3 3 3 3 3 3 4 5 4 4 4
9 4 9 8 7 5 4 3 6 8 10 2 1 8 5 6 8 12 19 22 21 14 16 13 11 18 19 18 15 15 14 14 14 14 15 16 17 16 16 16 15 15 17 16 14 14 12 12 13 13 13 12 11 11 10 11 9 9 9 9 9 8 9 8 8 7 8 7 6 7 7 6 7 6 7 5 5 5 4 3 4 3 3 3 3 2 3 3 3 2 3 3 3 3 4 4 4
3 4 5 6 10 7 7 7 7 6 3 1 2 6 8 11 5 5 2 4 6 10 11 8 10 13 10 7 12 14 15 15 15 15 15 16 16 15 14 14 15 15 16 15 15 14 14 15 15 16 16 14 13 13 12 12 11 10 9 10 10 9 7 7 6 5 5 6 7 7 7 6 6 6 5 5 5 5 4 4 3 4 4 4 3 3 3 3 3 3 3 3 4 2 2 3 4
3 6 7 8 8 9 2 2 0 3 2 5 3 3 4 7 5 3 7 1 4 11 12 12 13 15 12 13 14 15 15 15 15 15 14 15 14 14 15 15 15 14 13 15 17 17 19 17 16 17 16 13 14 13 12 11 11 10 10 10 9 8 8 8 7 6 6 5 6 6 7 7 5 5 6 4 5 4 4 4 4 5 4 4 4 4 4 4 3 3 3 3 4 3 3 5 2
5 5 9 2 2 4 6 6 0 1 5 5 4 9 3 4 6 2 1 1 3 10 14 17 16 14 15 15 15 16 16 16 17 17 16 16 17 18 17 16 17 17 18 18 19 18 17 17 18 19 16 15 12 12 12 11 10 10 9 8 9 9 9 8 7 8 6 6 5 6 5 6 6 6 5 5 5 5 4 4 4 4 4 3 4 4 4 4 3 4 4 4 5 3 3 3 4
16 10 8 6 4 5 2 3 2 1 2 2 2 2 3 8 6 1 6 9 11 12 11 10 12 15 17 15 16 15 15 13 13 13 12 13 14 15 16 17 18 18 18 19 18 17 14 14 15 15 18 18 18 16 13 10 10 8 8 9 9 8 7 8 7 7 7 7 7 6 6 7 6 4 4 4 4 4 4 4 4 4 4 4 4 4 4 4 3 4 4 5 4 3 4 5 5
2 6 4 1 6 4 5 7 4 5 4 2 5 1 6 6 5 10 7 11 8 7 8 13 17 19 17 16 15 15 14 13 14 13 14 16 17 18 19 19 18 18 17 16 16 14 16 16 16 15 13 11 11 11 12 13 13 12 10 7 7 8 8 8 7 7 7 6 7 7 6 5 7 5 5 5 5 4 4 5 5 5 5 4 3 4 4 4 4 4 5 4 5 3 4 5 5
4 6 4 2 0 3 5 1 5 6 5 5 3 3 4 7 8 9 7 8 12 16 16 14 13 14 16 15 16 15 15 14 14 15 15 16 16 17 17 18 18 17 17 16 15 17 18 15 14 15 15 15 14 13 12 13 12 11 12 13 11 9 9 7 8 7 7 6 5 6 7 7 5 6 5 5 5 5 5 5 5 5 4 4 4 4 4 4 4 4 5 4 4 2 3 5 4
10 10 9 9 7 4 6 9 1 2 4 4 3 7 6 9 4 8 7 8 12 14 16 15 14 15 14 14 15 16 15 15 16 16 16 15 16 16 17 16 14 14 14 15 14 13 13 14 15 16 15 14 15 14 14 12 10 11 13 11 11 9 9 7 8 7 7 7 6 7 7 5 5 6 6 6 6 5 5 6 5 4 4 4 4 4 4 3 5 5 5 3 4 3 4 5 4
Wind_Direction
161 161 157 186 223 207 171 342 88 321 55 52 69 37 81 94 126 106 98 120 83 1 65 89 105 116 131 138 122 93 28 56 330 134 144 125 107 118 147 126 103 98 109 95 100 122 127 131 130 131 131 135 134 137 136 136 134 134 138 141 139 137 138 138 139 139 139 138 137 136 134 134 134 133 131 128 126 125 124 122 117 117 116 113 111 110 105 101 99 93 88 88 91 93 93 102 108
153 139 176 266 53 52 322 102 104 4 36 58 64 113 135 116 101 99 119 97 67 101 86 87 85 91 98 121 137 109 35 39 48 86 88 106 96 63 114 112 109 115 118 120 110 108 122 128 127 128 126 130 131 134 133 133 131 135 142 140 139 139 139 141 142 141 140 140 138 138 136 135 135 133 131 128 127 127 126 124 122 121 119 114 114 115 110 104 95 93 90 89 88 97 113 123 122
145 146 111 280 352 97 295 35 86 82 74 78 54 76 87 77 86 78 97 102 111 110 100 99 100 92 131 149 43 19 77 60 72 80 102 131 105 125 116 113 110 118 125 158 137 130 104 122 125 122 124 121 127 128 130 140 142 144 141 140 141 143 143 144 143 142 142 141 139 137 138 138 136 134 133 131 131 131 130 128 129 127 124 124 124 122 123 122 119 110 115 108 113 111 112 119 130
136 185 112 44 320 47 49 28 86 115 99 158 86 74 95 98 86 94 96 110 118 123 121 67 48 331 93 68 92 79 87 62 68 115 117 151 109 142 152 124 116 128 126 142 128 122 123 139 123 135 130 135 137 134 143 154 146 144 143 143 144 145 145 145 145 144 143 141 140 140 140 139 137 136 136 136 135 133 132 131 132 134 133 137 138 136 133 134 138 144 142 152 145 140 130 123 129
149 88 66 53 98 344 89 103 127 96 104 182 105 112 111 113 116 110 98 88 65 62 84 119 86 59 90 109 146 48 125 92 94 88 106 87 112 136 148 133 126 129 134 139 133 131 131 151 143 144 136 139 139 144 146 143 148 145 147 144 143 145 146 144 144 142 141 141 142 142 142 141 141 141 141 139 137 136 135 137 140 141 145 148 148 144 142 145 155 170 177 173 177 178 174 143 145
90 71 360 65 142 226 40 41 51 92 174 140 107 131 126 128 116 112 103 89 81 66 65 72 111 125 54 14 12 82 130 111 138 96 117 129 131 140 150 138 137 130 122 135 141 141 139 135 137 132 129 132 134 137 141 145 145 145 147 145 144 145 144 144 142 142 143 144 143 144 144 144 144 144 144 143 143 143 144 144 146 149 152 153 152 148 148 155 168 178 213 241 230 202 191 197 167
142 108 13 51 286 106 121 119 120 126 19 123 123 127 127 120 119 114 107 86 55 69 49 101 111 110 79 69 77 98 99 108 122 122 121 137 135 144 146 137 128 125 134 144 140 138 136 139 144 133 130 132 137 138 140 144 139 141 143 145 146 146 146 146 145 146 146 147 147 146 147 147 148 150 150 150 149 150 150 151 152 153 154 154 150 150 152 159 167 200 245 267 281 256 239 262 248
28 79 170 90 28 55 52 132 118 143 127 122 132 123 127 128 126 113 119 107 138 102 112 99 74 94 70 60 102 87 90 77 95 105 119 133 138 143 139 131 125 132 136 143 144 135 146 145 143 137 130 134 135 138 146 145 140 145 147 148 149 149 149 148 148 148 149 149 149 150 152 153 155 156 156 156 155 154 153 154 153 151 151 151 150 153 157 172 192 210 232 258 279 294 301 296 298
40 58 36 34 44 22 57 88 109 48 110 107 98 114 121 128 122 109 87 91 95 85 105 123 129 76 135 97 74 94 81 93 103 118 126 137 143 140 133 131 131 136 139 138 132 141 152 151 144 143 140 142 145 149 148 155 157 153 152 151 149 150 150 148 148 149 151 152 153 156 158 159 159 159 159 158 156 153 151 149 146 143 143 147 153 153 164 204 229 238 236 261 279 299 305 303 285
70 78 208 144 121 88 97 35 83 153 126 135 133 137 128 118 104 106 114 94 103 100 102 45 67 108 116 100 103 86 105 111 120 119 133 139 141 136 130 132 134 134 132 140 146 155 155 153 149 148 148 152 155 157 158 164 159 154 152 150 151 151 150 150 151 154 155 158 161 163 163 162 161 159 157 154 149 146 142 140 139 141 144 150 168 173 197 240 263 268 274 272 277 287 291 294 294
133 298 164 24 27 78 113 124 114 114 122 121 108 124 125 117 109 97 104 105 98 107 99 102 86 113 116 90 65 102 114 123 132 139 146 147 141 134 133 137 136 137 141 150 154 162 157 154 151 151 150 148 149 151 153 157 153 152 152 153 153 155 155 154 157 158 160 164 167 166 164 162 159 155 151 148 145 144 141 141 140 145 148 160 171 251 257 268 277 279 280 287 287 287 289 293 294
71 164 112 101 124 150 183 127 121 114 120 120 118 131 136 114 109 112 116 114 122 117 125 181 142 127 95 112 127 127 131 135 139 144 148 147 137 133 131 135 137 138 142 143 150 148 154 149 149 156 153 152 151 153 154 154 154 154 156 158 159 159 161 162 162 165 166 168 169 168 163 157 154 151 150 148 149 150 152 153 156 169 185 201 230 234 263 270 272 281 284 286 284 285 290 293 294
220 104 103 80 158 97 161 107 128 123 121 144 140 127 127 119 126 131 126 124 136 133 159 111 141 142 109 125 139 134 146 154 143 148 147 145 137 128 127 126 133 136 138 142 146 154 160 149 160 159 158 154 155 156 157 156 156 159 161 160 161 163 164 166 168 169 171 171 169 165 160 155 152 154 156 159 159 165 169 175 181 199 208 221 240 252 252 270 271 278 283 283 283 284 287 291 298
183 186 129 124 43 118 128 122 132 121 142 151 122 140 141 128 139 134 130 133 153 131 133 135 135 107 95 114 150 155 160 155 150 148 149 145 129 132 127 131 136 139 143 144 148 157 159 161 165 163 160 155 161 159 161 161 162 163 165 165 166 168 168 169 170 171 173 172 168 161 157 158 158 163 165 168 172 172 180 194 207 226 226 236 252 256 259 265 275 279 279 278 278 281 284 290 292
234 135 81 120 47 65 174 123 167 138 158 152 152 144 140 136 137 140 147 137 99 119 120 121 143 116 187 165 163 175 161 155 153 149 148 128 139 135 140 141 139 145 152 147 152 153 164 168 171 155 153 156 165 161 161 170 169 169 169 170 170 172 172 172 172 173 175 173 167 161 161 162 166 169 172 174 182 181 187 215 278 285 275 264 265 267 268 269 271 277 279 278 277 277 280 284 287
213 90 86 101 190 133 204 131 161 129 162 165 164 133 119 134 143 142 166 134 125 132 151 129 229 137 161 187 155 157 153 151 151 146 126 142 145 133 139 146 155 161 162 157 161 167 169 175 155 152 162 181 177 179 175 179 178 175 175 176 174 173 173 174 177 178 177 175 169 166 164 167 168 173 181 187 191 199 190 138 265 278 267 265 266 267 271 271 270 272 273 273 272 270 277 282 283
346 82 70 61 183 158 186 129 149 165 157 164 155 141 134 148 155 27 96 120 131 160 176 151 163 115 151 139 146 144 147 148 144 140 146 146 132 138 142 152 159 166 168 175 175 174 173 174 172 167 182 185 179 216 201 188 187 181 181 180 179 176 175 180 180 181 180 179 172 169 167 125 123 163 185 147 208 125 156 224 242 253 259 260 264 266 268 269 267 269 271 273 275 276 279 282 287
92 78 110 157 197 167 193 157 175 153 141 153 155 157 134 140 124 120 109 108 127 135 113 109 88 102 119 125 137 144 144 147 150 149 145 140 145 147 157 168 165 179 179 188 184 178 174 179 179 177 182 186 183 198 208 189 194 185 169 173 170 181 183 185 185 181 185 148 178 163 113 129 116 151 173 187 178 198 217 220 233 249 259 260 259 264 266 273 274 273 276 277 279 288 292 305 329
113 145 110 200 187 224 153 156 159 136 152 157 160 163 145 148 134 156 131 140 141 121 117 120 114 112 117 130 140 146 148 150 154 153 152 151 160 166 170 172 178 173 186 187 193 183 185 180 181 184 190 187 177 185 201 151 110 46 309 160 165 183 187 184 161 184 123 133 95 116 125 114 161 194 200 202 190 212 218 234 237 251 262 256 269 276 276 280 283 283 286 290 296 304 340 11 351
223 124 199 228 209 219 176 139 165 148 149 151 152 165 133 140 136 156 147 150 147 146 138 132 135 140 143 142 148 150 147 155 157 156 155 160 167 171 170 173 179 185 184 184 183 186 183 180 190 195 196 188 182 191 189 105 185 145 274 204 171 177 188 170 159 151 127 134 118 124 122 132 174 203 222 223 225 219 234 237 235 242 259 288 297 332 342 332 329 342 343 338 342 16 20 14 350
247 144 184 221 181 154 216 151 159 151 149 151 151 146 132 153 145 151 145 130 172 170 164 155 157 151 151 151 152 155 154 158 163 162 161 167 170 173 175 179 183 182 180 169 179 187 184 184 191 198 197 197 194 197 190 159 179 185 202 210 165 166 183 172 179 184 146 135 121 125 129 141 189 217 231 257 136 202 249 264 300 34 23 358 353 2 347 335 6 347 344 353 342 341 344 353 1
121 216 188 187 137 179 191 161 145 152 148 142 145 144 157 141 144 147 154 153 182 187 184 159 150 152 153 155 158 159 160 161 166 168 171 172 171 176 178 185 195 176 158 175 191 191 187 183 191 194 191 193 198 204 194 196 180 183 192 189 167 163 175 197 197 193 179 164 160 152 145 147 188 220 218 203 201 192 247 263 301 42 18 295 335 38 329 6 6 346 328 326 321 315 316 309 324
208 253 209 186 171 175 173 148 152 143 149 145 154 159 144 160 161 168 163 168 186 172 164 159 156 159 158 154 157 164 167 167 167 173 175 178 176 177 178 181 183 182 187 192 187 197 191 189 197 185 186 193 204 200 189 196 210 191 192 180 171 176 175 202 208 204 203 187 181 181 171 180 188 204 212 216 220 203 245 256 252 53 260 255 248 175 206 246 160 322 309 301 306 310 309 309 310
192 229 164 189 171 177 153 152 151 153 151 159 155 148 156 145 155 182 171 348 149 147 152 154 149 145 151 156 165 166 168 172 174 173 176 182 179 180 176 177 189 188 187 190 188 192 190 195 198 185 188 193 201 199 196 192 201 200 207 198 186 193 184 202 207 205 201 190 192 196 190 187 183 196 218 220 226 214 243 253 235 239 241 237 252 191 262 279 290 282 287 288 305 302 311 313 312
192 237 177 176 165 145 142 144 147 142 138 136 132 149 165 162 156 153 205 147 139 133 137 141 145 150 157 160 165 165 167 173 175 175 178 184 183 177 171 179 182 181 190 197 189 189 191 193 192 188 190 194 196 195 203 199 194 206 208 195 195 202 201 207 204 194 200 194 191 199 186 188 186 195 212 222 204 227 243 256 255 261 258 269 264 301 255 308 324 304 284 290 308 310 312 300 298
195 192 145 141 142 137 148 131 133 132 129 124 105 109 125 118 99 64 161 148 139 130 136 146 149 155 162 166 166 165 169 174 176 176 181 183 181 172 175 178 185 192 196 194 187 189 188 191 191 190 189 185 183 189 202 205 203 207 213 201 203 204 208 209 208 207 198 192 194 195 198 194 192 192 210 208 197 224 222 231 234 233 236 277 40 326 318 323 300 296 282 280 283 288 294 279 278
164 126 143 144 146 134 155 133 136 131 133 132 121 120 125 136 128 135 159 149 135 135 143 153 157 163 165 166 167 169 172 177 180 177 178 181 183 179 179 180 185 197 194 193 190 181 188 185 192 189 188 189 170 190 194 209 205 213 213 206 202 209 200 200 216 203 208 195 203 197 198 200 192 196 201 202 207 214 214 216 223 207 221 242 155 260 355 229 218 226 239 251 264 278 273 274 284
134 124 96 107 133 136 144 128 134 119 96 122 116 112 108 50 88 162 158 157 148 143 150 157 164 164 165 167 168 172 177 179 180 178 183 182 186 182 181 182 188 193 189 196 189 171 181 188 185 183 188 187 181 190 197 206 211 214 215 208 204 207 184 181 201 203 216 215 201 207 201 198 195 203 203 203 207 206 215 217 217 204 213 188 176 196 209 250 247 256 239 231 249 256 283 292 279
142 124 117 121 119 128 162 146 162 131 136 133 117 92 55 125 180 157 149 149 154 150 154 162 166 167 167 168 169 177 183 180 183 185 189 189 185 181 184 186 184 188 193 190 184 170 185 187 181 183 186 188 189 193 196 205 208 209 212 212 207 181 153 174 217 224 221 218 213 215 207 196 199 199 207 209 209 208 212 215 221 221 197 167 169 189 183 85 54 18 354 352 329 358 340 322 317
110 112 125 113 112 140 213 128 138 125 162 140 128 120 223 243 154 152 150 151 149 152 158 164 166 169 172 172 175 180 186 185 191 191 186 186 188 183 184 187 184 181 178 183 176 184 186 187 184 181 185 190 196 198 197 203 209 208 204 205 199 144 155 269 278 235 217 209 206 215 208 199 202 205 200 212 209 209 213 219 221 220 168 155 163 168 135 117 103 47 344 9 347 355 326 314 329
125 106 118 143 129 186 212 172 153 134 182 154 73 137 247 177 165 157 158 156 156 164 169 169 167 171 173 175 178 185 192 192 190 190 186 186 188 185 184 182 183 176 166 173 183 186 183 186 183 185 190 195 196 202 201 206 209 207 200 195 180 144 166 168 154 246 231 226 212 212 201 199 204 204 204 201 204 196 218 233 234 211 151 150 151 157 153 123 102 20 360 355 319 300 303 304 310
125 101 260 217 154 204 202 237 180 146 219 193 86 74 188 171 171 167 161 164 162 165 173 174 173 174 178 176 180 188 194 193 191 191 187 186 186 185 181 181 180 176 177 178 183 182 186 186 186 185 190 193 199 202 204 205 206 205 196 188 174 162 170 168 185 213 222 208 201 193 195 200 199 205 197 146 132 178 214 240 246 243 152 126 133 140 119 98 36 356 316 296 316 310 324 299 304
229 154 177 172 178 164 168 236 218 187 163 206 119 165 92 186 180 171 169 166 170 169 175 179 179 179 181 183 185 190 191 196 195 191 190 186 189 184 183 178 180 181 180 179 181 183 189 189 189 187 189 194 195 198 193 191 193 202 188 176 182 170 170 185 177 185 231 232 203 186 214 215 197 164 86 95 111 143 211 224 260 147 112 123 125 105 81 126 144 282 296 290 216 277 294 289 291
212 347 171 185 164 166 195 200 210 244 164 189 148 140 193 167 172 174 175 171 171 176 178 182 183 184 185 187 189 190 191 194 199 193 192 188 188 190 186 182 180 182 182 181 183 181 189 190 193 193 193 190 188 183 183 182 188 189 178 176 176 183 194 179 169 194 215 80 92 92 83 39 59 61 61 38 7 231 237 176 147 126 116 123 120 123 190 212 252 234 262 239 228 246 273 277 282
192 174 182 209 189 172 178 173 207 179 224 162 166 150 174 160 166 176 178 177 175 182 181 181 184 185 186 187 192 190 193 197 203 197 189 190 189 190 188 186 183 182 183 184 183 184 184 191 195 199 195 192 186 181 175 175 156 119 96 121 120 142 125 147 167 180 175 176 115 80 89 71 93 92 117 153 231 244 197 167 158 168 157 143 147 191 233 223 230 219 230 255 234 230 243 257 267
191 169 196 171 172 205 199 192 163 171 180 166 167 166 173 165 173 177 179 182 184 187 184 183 186 186 186 188 191 192 195 202 199 191 190 189 189 187 186 185 185 185 182 183 185 183 185 188 192 197 196 189 179 173 170 168 156 163 155 110 123 145 147 156 182 160 162 141 126 129 140 146 152 157 190 206 191 201 187 191 196 191 193 154 206 257 249 234 254 266 260 251 270 268 244 258 263
165 160 219 187 184 198 222 193 175 169 151 187 188 163 166 173 179 182 181 180 189 187 189 189 190 189 189 189 192 196 197 203 195 188 185 190 191 186 181 180 185 186 182 182 184 187 185 183 182 194 194 182 173 180 186 172 165 156 108 191 190 182 172 171 164 153 136 146 148 163 155 170 177 179 191 191 195 182 186 189 200 216 190 194 227 243 261 278 243 229 255 257 258 270 279 236 253
155 163 181 269 194 194 200 189 159 175 165 196 187 170 180 179 182 181 177 180 195 193 191 194 193 194 192 189 193 196 203 198 182 186 191 189 189 184 179 182 181 181 191 185 186 188 185 181 185 192 185 184 189 190 186 179 179 184 171 191 173 164 174 170 158 162 163 160 172 180 180 187 185 199 192 188 187 187 194 204 206 209 192 214 223 241 249 253 256 269 263 281 222 256 269 250 241
157 162 189 152 273 337 66 166 167 177 109 219 154 176 192 185 180 180 184 192 196 193 191 193 190 194 193 195 196 196 189 191 187 193 188 189 186 183 183 186 187 187 184 188 189 183 183 185 191 186 187 189 198 193 175 185 190 184 181 169 173 135 111 134 146 167 175 182 185 181 184 193 194 192 191 186 188 197 196 194 203 204 208 213 224 224 240 247 244 252 249 244 283 238 252 257 245
173 111 146 215 213 155 194 225 173 177 161 186 172 154 358 164 198 201 201 198 201 200 198 195 193 192 194 197 196 192 189 185 189 191 191 187 185 185 187 189 189 188 185 186 187 188 187 192 191 188 192 196 196 193 187 195 187 160 105 114 118 125 170 151 122 135 157 162 176 179 189 197 186 188 189 190 194 192 186 194 201 202 206 209 208 223 225 239 251 257 247 244 240 274 279 308 254
258 183 188 144 178 199 157 201 134 91 13 109 86 48 350 188 186 211 227 221 224 215 209 211 210 210 204 196 194 193 191 188 187 188 189 187 186 189 190 190 183 188 189 189 189 191 192 194 193 191 195 199 197 190 191 178 127 104 99 81 85 74 49 71 88 105 165 178 162 173 196 187 186 193 188 190 192 192 189 201 202 207 206 198 203 215 225 230 233 236 235 233 232 233 262 266 316
296 222 196 193 191 194 129 126 129 163 203 206 142 25 253 227 211 208 205 207 219 212 206 214 211 213 205 202 205 201 197 189 186 189 189 188 189 188 190 189 188 192 192 194 191 192 193 197 193 194 199 199 196 192 185 161 166 153 147 142 142 128 140 141 160 187 190 187 183 185 182 186 191 190 186 190 195 188 191 198 197 176 182 181 189 206 214 228 235 238 230 204 223 222 209 249 303
183 266 189 201 204 181 152 148 141 165 202 209 187 184 254 275 212 210 211 212 219 214 213 218 214 209 204 202 202 198 197 193 194 188 183 185 190 188 191 191 193 192 197 190 189 194 197 196 194 195 198 197 192 190 178 168 164 171 174 178 177 181 179 219 212 195 169 192 152 163 176 180 181 171 169 173 179 176 161 155 162 165 154 153 179 169 204 216 229 219 204 178 216 200 152 227 237
224 234 157 191 204 175 169 163 173 195 105 79 164 116 149 211 230 204 206 209 217 222 223 219 215 209 207 204 202 198 197 193 188 189 187 187 186 189 191 193 191 196 191 183 190 192 197 199 193 199 199 190 185 178 176 176 171 175 176 180 182 179 182 185 177 167 143 134 141 152 140 144 143 131 129 136 154 147 132 139 140 125 112 117 120 162 195 221 251 308 200 254 267 192 174 227 266
213 219 155 189 202 204 175 174 191 181 156 184 196 167 67 244 273 185 175 201 225 229 225 220 213 210 208 204 204 200 196 193 188 186 188 188 189 192 189 190 194 192 185 187 189 192 196 197 195 197 198 187 179 176 176 180 173 171 172 168 177 189 181 162 150 140 138 131 135 102 123 136 151 171 155 156 150 134 139 141 128 119 118 130 124 128 166 341 187 210 258 184 212 256 189 220 148
257 211 144 157 194 195 167 193 187 138 154 205 202 189 199 286 258 150 194 206 224 228 224 220 211 207 205 204 205 201 197 193 194 193 191 190 189 190 189 186 185 191 188 189 189 189 192 190 194 195 202 189 178 177 175 176 169 156 155 167 164 163 148 124 137 146 154 144 152 168 170 159 176 167 154 121 133 141 140 141 134 140 153 163 151 168 154 155 166 186 210 214 186 186 230 201 209
130 91 126 76 42 25 38 71 102 71 203 217 202 192 188 221 216 179 165 207 213 221 224 226 216 214 211 208 203 199 195 193 193 195 195 197 193 186 178 185 189 186 186 187 188 191 190 189 193 197 203 186 177 178 171 176 169 165 164 169 156 151 152 145 141 153 161 151 168 186 177 189 178 164 128 127 149 153 149 151 144 163 168 175 170 171 169 170 176 165 170 163 143 193 194 205 232
191 206 204 49 311 14 35 2 67 163 233 252 212 200 190 209 263 233 211 208 210 207 208 208 206 205 207 205 203 200 194 192 192 192 196 192 185 189 186 189 188 187 183 188 191 191 191 192 190 198 198 188 181 175 173 175 173 175 169 160 155 158 155 159 164 175 181 183 181 174 177 158 173 130 121 131 149 168 162 166 158 158 165 168 185 192 183 184 187 167 167 182 179 227 238 188 202
150 124 120 170 266 3 247 89 191 207 195 236 190 173 353 249 225 202 210 222 224 218 212 207 203 202 205 203 201 196 193 189 190 194 192 188 189 188 191 193 187 187 187 188 192 191 192 192 192 195 201 189 185 174 179 178 177 176 167 163 160 160 161 165 171 175 181 178 173 155 147 162 142 145 182 139 172 177 169 149 161 155 181 206 207 186 217 193 189 186 195 205 181 201 205 187 187
145 173 159 171 157 185 213 243 306 313 299 264 180 169 216 287 279 226 215 219 218 212 213 215 199 196 201 200 194 192 191 191 192 191 193 192 193 193 192 190 190 188 188 190 191 191 191 193 194 196 202 189 183 180 182 179 184 175 169 166 166 164 170 172 177 175 181 176 165 165 165 165 171 177 171 162 180 182 192 184 179 183 194 206 206 206 219 221 203 210 214 212 204 211 191 193 198
193 140 171 180 153 156 205 184 189 203 207 221 73 127 218 177 230 214 208 218 225 219 218 215 193 200 204 197 186 188 188 192 192 192 193 193 195 193 190 191 191 191 192 191 190 192 190 193 194 198 200 193 185 186 182 184 182 173 172 171 168 170 172 177 181 177 169 166 171 163 170 166 164 179 168 180 172 181 198 192 181 178 205 225 225 227 236 241 242 243 249 243 261 197 193 194 204
199 173 107 161 215 142 220 197 174 207 210 25 157 189 188 196 256 296 307 252 210 201 215 182 188 198 199 173 185 192 193 192 193 195 196 196 194 192 192 194 196 196 194 192 192 191 192 196 195 199 200 192 188 185 187 184 179 173 172 171 175 173 171 170 173 169 163 166 168 165 169 172 175 169 186 168 189 180 190 184 183 201 210 218 223 222 237 242 252 250 268 267 270 259 233 223 223
219 117 202 210 165 155 98 30 275 86 55 252 191 307 304 315 323 317 341 87 189 175 189 188 190 190 178 186 191 195 194 193 192 196 196 193 191 193 195 195 197 196 194 195 195 194 196 194 194 199 200 193 191 188 186 186 176 171 180 175 167 167 166 167 168 167 170 178 168 170 164 183 177 174 178 188 185 193 187 174 187 211 221 224 224 232 236 246 251 245 251 255 260 252 217 238 217
124 183 224 181 108 109 151 209 25 95 167 251 144 198 232 136 242 305 2 113 191 176 184 194 186 178 183 191 192 194 195 195 194 196 195 191 190 192 194 197 196 195 197 199 200 199 198 196 197 197 196 192 189 185 188 185 178 177 175 175 172 168 167 166 162 167 171 167 179 171 169 164 181 187 177 189 184 188 190 185 187 208 219 224 225 231 229 238 233 239 235 234 239 235 231 234 196
210 219 171 159 225 247 292 111 205 141 220 247 260 231 260 182 235 218 222 195 195 196 188 174 174 183 191 191 196 198 197 192 193 195 193 194 194 195 197 199 199 200 201 201 201 198 197 201 202 199 197 194 189 190 182 172 173 176 175 175 172 168 166 163 165 166 164 171 177 180 175 180 181 184 183 185 190 192 188 190 186 203 212 220 219 230 231 237 219 230 231 233 244 220 223 236 228
317 77 160 151 125 168 151 198 174 142 232 106 284 80 220 208 225 205 217 193 177 159 169 190 186 188 188 192 191 194 192 193 193 193 195 196 195 196 196 199 198 201 201 205 202 200 202 202 199 200 202 199 193 188 176 179 183 176 167 161 173 169 166 163 164 160 171 180 184 182 186 176 187 183 191 190 191 199 196 189 191 193 203 209 216 232 227 237 231 231 240 241 249 219 228 238 242
201 199 204 192 359 228 111 60 138 178 171 183 185 268 277 254 213 183 212 169 169 171 184 187 187 191 195 190 189 192 192 193 194 195 197 196 196 199 201 203 204 201 202 200 198 200 204 199 199 198 195 195 194 189 182 189 179 169 164 171 172 171 171 163 158 166 171 188 193 193 190 195 175 185 187 190 198 202 198 196 187 189 192 211 221 242 240 235 231 243 247 243 265 239 234 249 243
187 190 203 176 137 130 183 244 26 107 128 199 150 242 263 265 192 200 203 184 175 187 180 182 182 189 192 195 197 190 192 197 195 197 198 195 197 198 203 204 203 204 203 203 205 205 204 201 201 198 197 197 194 189 189 184 180 176 177 164 174 168 162 160 161 166 176 189 199 200 199 191 188 201 183 200 201 202 198 191 186 192 201 214 224 235 248 219 229 236 257 249 243 228 225 241 238